Location: Ward Pound Ridge Reservation
(41.2500°N, 73.6000°W)
Time: 15:48:17
(UTC-05:00)

Envisat - Pass Details

Date: 11 October 2017
Orbit: 764 x 766 km, 98.2° (Epoch: 16 December)

Event Time Altitude Azimuth Distance (km) Brightness Sun altitude
Exits shadow 22:10:59 13° 286° (WNW) 2,107 5.8 -42.6°
Drops below altitude 10° 22:12:21 10° 301° (WNW) 2,309 6.1 -42.8°
Sets 22:15:53 0° 327° (NNW) 3,242 7.0 -43.3°
